Time,TemperatureF,DewpointF,PressureIn,WindDirection,WindDirectionDegrees,WindSpeedMPH,WindSpeedGustMPH,Humidity,HourlyPrecipIn,Conditions,Clouds,dailyrainin,SoftwareType,DateUTC
2013-11-15 00:03:00,41.0,13.0,30.21,South,189,1.0,10.0,31,0.00,,,0.00,,2013-11-15 05:03:00,
2013-11-15 08:42:00,44.0,31.0,30.21,SW,236,1.0,7.0,61,0.00,,,0.00,,2013-11-15 13:42:00,
2013-11-15 10:43:00,49.0,42.0,30.22,SSW,203,2.0,8.0,78,0.00,,,0.00,,2013-11-15 15:43:00,
2013-11-15 11:23:00,51.0,42.0,30.22,South,185,1.0,4.0,72,0.00,,,0.00,,2013-11-15 16:23:00,
2013-11-15 11:33:00,51.0,42.0,30.22,South,185,1.0,4.0,72,0.00,,,0.00,,2013-11-15 16:33:00,
2013-11-15 11:53:00,51.0,43.0,30.20,SSW,210,0.0,3.0,73,0.00,,,0.00,,2013-11-15 16:53:00,
2013-11-15 12:22:00,52.0,44.0,30.19,SW,233,1.0,4.0,73,0.00,,,0.00,,2013-11-15 17:22:00,
2013-11-15 12:42:00,51.0,44.0,30.19,WSW,237,1.0,4.0,77,0.00,,,0.00,,2013-11-15 17:42:00,
2013-11-15 12:52:00,50.0,44.0,30.18,WSW,240,1.0,4.0,80,0.00,,,0.00,,2013-11-15 17:52:00,
2013-11-15 13:12:00,50.0,45.0,30.16,WSW,253,1.0,4.0,83,0.00,,,0.00,,2013-11-15 18:12:00,
2013-11-15 13:22:00,49.0,45.0,30.16,SSW,211,1.0,5.0,86,0.00,,,0.00,,2013-11-15 18:22:00,
2013-11-15 13:42:00,49.0,45.0,30.16,WNW,298,0.0,4.0,86,0.00,,,0.00,,2013-11-15 18:42:00,
2013-11-15 13:52:00,49.0,45.0,30.15,West,270,0.0,5.0,87,0.00,,,0.00,,2013-11-15 18:52:00,
2013-11-15 14:12:00,49.0,46.0,30.14,West,274,0.0,2.0,88,0.00,,,0.00,,2013-11-15 19:12:00,
2013-11-15 14:21:00,47.0,44.0,30.14,WSW,244,0.0,1.0,89,0.00,,,0.00,,2013-11-15 19:21:00,
2013-11-15 14:42:00,47.0,45.0,30.14,WNW,302,0.0,0.0,92,0.00,,,0.00,,2013-11-15 19:42:00,
2013-11-15 14:52:00,46.0,44.0,30.13,WSW,238,0.0,2.0,93,0.00,,,0.00,,2013-11-15 19:52:00,
2013-11-15 15:12:00,46.0,45.0,30.13,WSW,253,0.0,3.0,95,0.00,,,0.00,,2013-11-15 20:12:00,
2013-11-15 15:22:00,46.0,45.0,30.13,NW,306,0.0,4.0,95,0.00,,,0.00,,2013-11-15 20:22:00,
2013-11-15 15:42:00,46.0,45.0,30.13,SW,229,0.0,4.0,95,0.02,,,0.02,,2013-11-15 20:42:00,
2013-11-15 15:52:00,46.0,45.0,30.13,SSW,201,1.0,4.0,95,0.02,,,0.02,,2013-11-15 20:52:00,
2013-11-15 16:12:00,46.0,45.0,30.13,SSW,205,2.0,5.0,96,0.02,,,0.02,,2013-11-15 21:12:00,
2013-11-15 16:22:00,46.0,45.0,30.13,SSW,205,2.0,5.0,96,0.02,,,0.02,,2013-11-15 21:22:00,
2013-11-15 16:43:00,46.0,45.0,30.12,SW,230,0.0,2.0,96,0.01,,,0.03,,2013-11-15 21:43:00,
2013-11-15 16:55:00,45.0,44.0,30.12,SW,225,0.0,3.0,96,0.02,,,0.04,,2013-11-15 21:55:00,
2013-11-15 17:14:00,45.0,44.0,30.12,South,182,1.0,2.0,96,0.02,,,0.04,,2013-11-15 22:14:00,
2013-11-15 17:24:00,45.0,44.0,30.12,SSW,212,0.0,3.0,96,0.04,,,0.06,,2013-11-15 22:24:00,
2013-11-15 17:43:00,45.0,44.0,30.12,SSW,211,0.0,2.0,96,0.03,,,0.06,,2013-11-15 22:43:00,
2013-11-15 17:53:00,45.0,44.0,30.13,SSW,210,0.0,1.0,96,0.02,,,0.06,,2013-11-15 22:53:00,
2013-11-15 18:12:00,45.0,44.0,30.13,SSW,205,0.0,2.0,96,0.02,,,0.06,,2013-11-15 23:12:00,
2013-11-15 18:22:00,45.0,44.0,30.13,WSW,248,0.0,1.0,97,0.00,,,0.06,,2013-11-15 23:22:00,
2013-11-15 18:33:00,45.0,44.0,30.13,WSW,248,0.0,1.0,97,0.00,,,0.06,,2013-11-15 23:33:00,
2013-11-15 18:43:00,45.0,44.0,30.13,WSW,248,0.0,1.0,97,0.00,,,0.06,,2013-11-15 23:43:00,
2013-11-15 18:52:00,45.0,44.0,30.13,WSW,237,0.0,0.0,96,0.01,,,0.07,,2013-11-15 23:52:00,
2013-11-15 19:11:00,45.0,44.0,30.13,SW,231,0.0,0.0,97,0.01,,,0.07,,2013-11-16 00:11:00,
2013-11-15 19:22:00,45.0,44.0,30.13,ENE,78,0.0,0.0,97,0.01,,,0.07,,2013-11-16 00:22:00,
2013-11-15 19:42:00,45.0,44.0,30.13,SSW,202,0.0,0.0,96,0.00,,,0.07,,2013-11-16 00:42:00,
2013-11-15 19:52:00,45.0,44.0,30.13,SW,231,0.0,2.0,97,0.00,,,0.07,,2013-11-16 00:52:00,
2013-11-15 20:12:00,45.0,44.0,30.14,WSW,242,1.0,4.0,97,0.01,,,0.08,,2013-11-16 01:12:00,
2013-11-15 20:22:00,46.0,45.0,30.14,West,263,1.0,4.0,97,0.03,,,0.10,,2013-11-16 01:22:00,
2013-11-15 20:42:00,46.0,45.0,30.14,SW,221,0.0,4.0,96,0.04,,,0.11,,2013-11-16 01:42:00,
2013-11-15 20:52:00,46.0,45.0,30.14,WSW,251,1.0,5.0,96,0.05,,,0.12,,2013-11-16 01:52:00,
2013-11-15 21:12:00,46.0,45.0,30.14,SW,215,0.0,3.0,96,0.04,,,0.12,,2013-11-16 02:12:00,
2013-11-15 21:22:00,46.0,45.0,30.13,SSW,212,0.0,2.0,96,0.02,,,0.12,,2013-11-16 02:22:00,
2013-11-15 21:42:00,45.0,44.0,30.14,SW,220,0.0,0.0,96,0.01,,,0.12,,2013-11-16 02:42:00,
2013-11-15 21:52:00,45.0,44.0,30.14,SW,226,0.0,0.0,96,0.00,,,0.12,,2013-11-16 02:52:00,
2013-11-15 22:02:00,45.0,44.0,30.14,SW,226,0.0,0.0,96,0.00,,,0.12,,2013-11-16 03:02:00,
2013-11-15 22:11:00,45.0,44.0,30.14,SW,226,0.0,0.0,96,0.00,,,0.12,,2013-11-16 03:11:00,
2013-11-15 22:22:00,46.0,45.0,30.15,SW,234,0.0,4.0,97,0.00,,,0.12,,2013-11-16 03:22:00,
2013-11-15 22:44:00,47.0,46.0,30.15,SW,232,0.0,3.0,97,0.00,,,0.12,,2013-11-16 03:44:00,
2013-11-15 22:55:00,46.0,45.0,30.15,SE,142,0.0,0.0,97,0.00,,,0.12,,2013-11-16 03:55:00,
2013-11-15 23:24:00,47.0,46.0,30.15,WSW,237,0.0,4.0,97,0.02,,,0.14,,2013-11-16 04:24:00,
2013-11-15 23:43:00,47.0,46.0,30.15,WSW,252,0.0,0.0,97,0.02,,,0.14,,2013-11-16 04:43:00,
2013-11-15 23:53:00,47.0,46.0,30.15,WSW,245,0.0,0.0,97,0.02,,,0.14,,2013-11-16 04:53:00,